BERGEN / FLESLAND current weather conditions

sailwx.info

Wind from 250 at 13 knots

Air temperature 9.0° C
Visibility: greater than 5.4 NM
Dewpoint 8.0° C

Last reported at 2014-Dec-21 19:20 UTC.
Time now 2014-Dec-21 21:30 UTC

Location: N 60°17' E 005°14'.
View on Google Maps.

See reports from other nearby stations

  
Tides and Currents Weather Stations Pressure Air Temp Water Temp Dewpoint Dewpoint Depression Visibility Wind Speed Wind Dir Waves Ship Positions
date/time (UTC)wind fromknots sea level pressurealtimeterstation pressurevisibilityair tempwater tempwave heightnotes
2014-Dec-21 20:50 240 12 5.4 8.0 Light drizzle.
2014-Dec-21 20:20 240 12 5.4 9.0 Light rain showers.
2014-Dec-21 19:50 250 11 4.9 9.0 Light rain drizzle.
2014-Dec-21 19:20 250 13 5.4 9.0
2014-Dec-21 18:50 260 15 5.4 9.0
2014-Dec-21 18:20 250 15 gusting 25 4.9 9.0 Light rain drizzle.
2014-Dec-21 17:50 250 14 2.2 9.0 Rain drizzle. Mist.
2014-Dec-21 17:20 260 16 5.4 9.0
2014-Dec-21 16:50 240 15 4.9 8.0 Rain.
2014-Dec-21 16:20 250 15 2.2 8.0 Rain drizzle. Mist.
2014-Dec-21 15:50 240 15 1.9 8.0 Rain drizzle.
2014-Dec-21 15:20 160 10 1.9 5.0 Rain drizzle.
2014-Dec-21 14:50 140 14 1.6 5.0 Rain drizzle.
2014-Dec-21 14:20 140 15 3.2 5.0 Rain drizzle.
2014-Dec-21 13:50 140 14 4.9 4.0 Light rain drizzle.
2014-Dec-21 13:20 130 15 4.3 4.0 Light rain drizzle.
2014-Dec-21 12:50 130 14 4.9 3.0 Light rain drizzle.
2014-Dec-21 12:20 140 16 5.4 3.0 Light rain drizzle.
2014-Dec-21 11:50 130 16 5.4 3.0 Light rain drizzle.
2014-Dec-21 11:20 130 15 4.9 3.0 Light rain drizzle.
2014-Dec-21 10:50 130 13 5.4 2.0 Light rain drizzle.
2014-Dec-21 10:20 130 13 5.4 2.0 Light rain drizzle.
2014-Dec-21 09:50 140 13 5.4 2.0 Light rain drizzle.
2014-Dec-21 09:20 140 11 5.4 2.0 Light rain drizzle.
2014-Dec-21 08:50 130 9 5.4 2.0 Light rain drizzle.
2014-Dec-21 08:20 130 10 4.9 2.0 Light rain.
2014-Dec-21 07:50 130 8 5.4 2.0 Light rain.
2014-Dec-21 07:20 130 8 5.4 2.0 Light rain drizzle.
2014-Dec-21 06:50 140 6 5.4 2.0 Light drizzle rain.
2014-Dec-21 06:20 120 6 5.4 2.0
2014-Dec-21 05:50 120 6 5.4 2.0
2014-Dec-21 05:20 120 5 5.4 2.0
2014-Dec-21 04:50 130 6 5.4 2.0
2014-Dec-21 03:50 120 4 5.4-0.0
2014-Dec-21 02:50 5.4 1.0
2014-Dec-21 01:50 130 4 5.4-0.0
2014-Dec-21 00:50 060 4 5.4 2.0
2014-Dec-20 23:50 5.4 2.0
2014-Dec-20 22:50 4.9 1.0
2014-Dec-20 22:20 010 4 5.4 2.0
2014-Dec-20 21:50 020 4 5.4 2.0
2014-Dec-20 21:20 360 6 5.4 2.0 Showers in the vicinity.
2014-Dec-20 20:50 350 6 5.4 2.0
2014-Dec-20 20:20 310 11 5.4 3.0 Light rain showers.
2014-Dec-20 19:50 340 10 5.4 3.0 Light rain showers.
2014-Dec-20 19:20 340 8 5.4 2.0
2014-Dec-20 18:50 350 10 5.4 3.0
2014-Dec-20 18:20 320 5 5.4 3.0 Light rain showers.
2014-Dec-20 17:50 5.4 2.0 Light rain showers.
2014-Dec-20 17:20 020 3 5.4 2.0 Thunderstorm with rain.
2014-Dec-20 16:50 010 4 5.4 2.0 Showers in the vicinity.
2014-Dec-20 16:20 360 6 5.4 2.0
2014-Dec-20 15:50 360 7 5.4 2.0 Light rain showers.
2014-Dec-20 15:20 350 10 5.4 2.0
2014-Dec-20 14:50 340 10 5.4 2.0
2014-Dec-20 14:20 360 8 5.4 2.0 Showers in the vicinity.
2014-Dec-20 13:50 360 7 5.4 2.0
2014-Dec-20 13:20 350 6 5.4 2.0
2014-Dec-20 12:50 320 4 5.4 2.0 Showers in the vicinity.
2014-Dec-20 12:20 300 5 5.4 2.0 Light rain showers.
2014-Dec-20 11:50 5.4 1.0 Light rain showers.
2014-Dec-20 11:20 060 3 5.4 2.0 Light rain showers.
2014-Dec-20 10:50 300 6 5.4 2.0 Light rain showers.
2014-Dec-20 10:20 320 5 5.4 2.0 Showers in the vicinity.
2014-Dec-20 09:50 310 20 5.4 2.0 Small hail/snow pellets showers.
2014-Dec-20 09:20 130 5 5.4 1.0 Showers in the vicinity.
2014-Dec-20 08:50 5.4-0.0 Showers in the vicinity.
2014-Dec-20 08:20 050 3 5.4 1.0 Showers in the vicinity.
2014-Dec-20 07:50 090 4 5.4 2.0 Light snow showers.
2014-Dec-20 07:20 090 5 5.4 2.0 Thunderstorm in the vicinity.
2014-Dec-20 06:50 5.4 2.0 Thunderstorm in the vicinity.
2014-Dec-20 06:20 300 3 5.4 3.0
2014-Dec-20 05:50 260 6 5.4 3.0 Showers in the vicinity.
2014-Dec-20 05:20 300 8 5.4 3.0 Showers in the vicinity.
2014-Dec-20 04:50 260 11 5.4 3.0 Light rain showers.
2014-Dec-20 03:50 250 6 5.4 4.0 Showers in the vicinity.
2014-Dec-20 02:50 300 8 5.4 4.0 Thunderstorm in the vicinity.
2014-Dec-20 01:50 260 12 5.4 5.0 Thunderstorm in the vicinity.
2014-Dec-20 00:50 270 10 gusting 20 5.4 5.0 Thunderstorm in the vicinity.
2014-Dec-19 23:50 260 14 5.4 5.0 Thunderstorm in the vicinity.
2014-Dec-19 23:20 5.4 3.0 Thunderstorm in the vicinity.
2014-Dec-19 22:50 320 11 5.4 4.0 Thunderstorm in the vicinity.
2014-Dec-19 22:20 270 8 5.4 4.0 Thunderstorm in the vicinity.
2014-Dec-19 21:50 270 5 5.4 5.0 Light rain showers. Thunderstorm in the vicinity.
2014-Dec-19 21:20 320 9 5.4 5.0 Light rain showers. Thunderstorm.